Location: Hilton Head Island
(32.2163°N, 80.7526°W)
Time: 16:05:14
(UTC-05:00)

Explorer 11/Cluster Stage 4 - Pass Details

Date: 19 February 2026
Orbit: 463 x 1176 km, 28.8° (Epoch: 6 March)

Event Time Altitude Azimuth Distance (km) Brightness Sun altitude
Rises 14:29:19 0° 262° (W) 2,745 9.9 39.1°
Reaches altitude 10° 14:31:45 10° 257° (WSW) 1,762 9.2 38.7°
Maximum altitude 14:35:36 50° 181° (S) 618 7.4 38.2°
Drops below altitude 10° 14:39:07 10° 104° (ESE) 1,607 8.1 37.8°
Sets 14:41:16 0° 99° (E) 2,472 8.9 37.5°
